Location: Sauerland
(51.1981°N, 7.8053°E)
Time: 15:18:59
(UTC+01:00)

ISS - Pass Details

Date: 20 February 2026
Orbit: 416 x 427 km, 51.6° (Epoch: 5 March)

Event Time Altitude Azimuth Distance (km) Brightness Sun altitude
Exits shadow 06:30:50 15° 266° (W) 1,206 -2.1 -10.3°
Maximum altitude 06:33:29 84° 352° (N) 424 -3.8 -9.9°
Drops below altitude 10° 06:36:51 10° 83° (E) 1,494 0.5 -9.4°
Sets 06:38:56 0° 84° (E) 2,357 2.0 -9.0°
